weather.gov     
National Weather Service

Regional Weather Roundup
NWS Homepage
This page is being discontinued on March 12, 2014.
The same data is available at this site. Please update your bookmarks.
Thank you, and we apologize for the inconvenience.
Please send an email to SR-SRH.Webmaster@noaa.gov with any concerns.


Current Version
Previous Version:    01  02  03  04  05  06  07  08  09  10  11  12  13  14  15  16  17  18  19  20  21  22  23  24  25  
[Printable]
582
ASUS42 KCAE 301310
RWRCAE
REGIONAL WEATHER ROUNDUP
NATIONAL WEATHER SERVICE COLUMBIA SC
900 AM EDT THU OCT 30 2014

NOTE: "FAIR" INDICATES FEW OR NO CLOUDS BELOW 12,000 FEET WITH NO
SIGNIFICANT WEATHER AND/OR OBSTRUCTIONS TO VISIBILITY.

NOT ALL STATIONS ARE QUALITY CONTROLLED BY THE NATIONAL
WEATHER SERVICE. USE DATA WITH CAUTION...ESPECIALLY
DEWPOINT OBSERVATIONS.

SCZ001>056-GAZ040-063>065-077-301400-
...UPSTATE SOUTH CAROLINA...

CITY           SKY/WX    TMP DP  RH WIND       PRES   REMARKS
ANDERSON       SUNNY     48  44  86 CALM      30.08R
LIBERTY        FAIR      38  37  99 CALM      30.08R
SPARTANBURG    FAIR      52  41  66 N5        30.07S
CLEMSON        SUNNY     50  45  83 NW5       30.08S
GREENVILLE     SUNNY     52  38  58 NE8       30.08R
GREENWOOD      SUNNY     51  42  71 N6        30.08R
GREER          SUNNY     53  38  56 NE6       30.07R
ROCK HILL      SUNNY     54  45  71 NE8       30.07R


...CENTRAL SOUTH CAROLINA...

CITY           SKY/WX    TMP DP  RH WIND       PRES   REMARKS
COLUMBIA APT   SUNNY     58  46  64 N6        30.04R
COLUMBIA OWENS SUNNY     58  46  64 VRB3      30.05R
DARLINGTON     SUNNY     57  43  58 N9        30.05R
FLORENCE       SUNNY     58  47  66 N13       30.02R
MCENTIRE ANGB  MOSUNNY   59  45  60 N7        30.03R
ORANGEBURG     SUNNY     60  47  61 N9        30.02R
SUMTER SHAW    SUNNY     58  46  64 N12       30.01R
NEWBERRY       FAIR      52  46  82 NE8       30.09R
AIKEN          FAIR      55  50  82 N8        30.07R
BARNWELL       FAIR      59  50  72 N7        30.03R
MANNING        FAIR      59  54  82 N3        30.02R
CAMDEN         FAIR      54  45  71 N5        30.05R
LANCASTER      FAIR      54  45  71 N5        30.07R
WINNSBORO      FAIR      55  43  62 N9        30.05R


...EASTERN AND COASTAL SOUTH CAROLINA...

CITY           SKY/WX    TMP DP  RH WIND       PRES   REMARKS
MYRTLE BEACH   PTSUNNY   57  52  82 N9        29.99R
N MYRTLE BCH   CLOUDY    57  54  89 N9        29.98S
CONWAY         FAIR      55  55 100 N8        30.00R
MARION         CLOUDY    55  48  76 N8        30.02R
FLORENCE       SUNNY     58  47  66 N13       30.02R
DARLINGTON     SUNNY     57  43  58 N9        30.05R
CHARLESTON APT MOSUNNY   62  52  69 NE9       30.00R
WALTERBORO     SUNNY     61  59  94 N3        30.02R
BEAUFORT         N/A    N/A N/A N/A MISG        N/A


...EASTERN GEORGIA...

CITY           SKY/WX    TMP DP  RH WIND       PRES   REMARKS
AUGUSTA BUSH F MOSUNNY   57  48  72 N6        30.04R
AUGUSTA DANIEL SUNNY     56  46  69 N9        30.04R
THOMSON        SUNNY     50  50 100 CALM      30.09R
WASHINGTON     FAIR      54  50  87 N5        30.06R
CLAXTON        FAIR      59  57  94 CALM      30.01R
SYLVANIA       CLOUDY    65  62  91 NE7       30.01S
STATESBORO     CLOUDY    57  57 100 N5        30.01R
SAVANNAH       CLOUDY    66  61  82 NW7       30.00R


...SOUTHERN NORTH CAROLINA...

CITY           SKY/WX    TMP DP  RH WIND       PRES   REMARKS
CHARLOTTE      SUNNY     52  42  69 N8        30.08R
MONROE           N/A    N/A N/A N/A MISG      30.06R
WADESBORO      SUNNY     51  47  84 CALM      30.06R
ROCKINGHAM     SUNNY     54  45  70 N5        30.05R
RUTHERFORDTON  SUNNY     42  39  89 W6        30.09R
ASHEVILLE      SUNNY     42  36  79 N7        30.10R

$$




U.S. Dept. of Commerce
NOAA National Weather Service
1325 East West Highway
Silver Spring, MD 20910
E-mail: w-nws.webmaster@noaa.gov
Page last modified: May 16, 2007
NATIONAL WEATHER SERVICE: for Safety, for Work, for Fun - FOR LIFE